User: anonymous   Login
Location: NJAA Observatory
(40.6819°N, 74.8979°W)
Time: 06:21:06
(UTC-04:00)
Language:

Cosmos 1939 Rocket - Orbit

View from above orbital plane
View from above orbital plane
View from above satellite
View from above satellite

Ground track
Ground track

The orbit data is extracted from the following two-line orbital elements,

1 19046U 88032B   15214.16367599  .00001869  00000-0  14735-3 0  9997
2 19046 097.6264 265.8640 0041623 144.0743 216.3293 15.01310911469823
Epoch (UTC): 02 August 2015 03:55:41
Eccentricity: 0.0041623
inclination: 97.6264°
perigee height: 534 km
apogee height: 592 km
right ascension of ascending node: 265.8640°
argument of perigee: 144.0743°
revolutions per day: 15.01310911
mean anomaly at epoch: 216.3293°
orbit number at epoch: 46982

The dashed part of the orbit path shows where the satellite is in the earth's shadow,  

DLR